Location: Boiro
(42.6475°N, 8.8834°W)
Time: 15:48:13
(UTC+02:00)

Explorer 7 - Pass Details

Date: 01 July 2022
Orbit: 482 x 668 km, 50.3° (Epoch: 15 August)

Event Time Altitude Azimuth Distance (km) Brightness Sun altitude
Rises 02:59:14 0° 273° (W) 3,002 10.6 -24.1°
Reaches altitude 10° 03:01:47 10° 282° (WNW) 2,080 9.8 -24.0°
Maximum altitude 03:06:12 36° 348° (NNW) 1,039 8.7 -23.9°
Drops below altitude 10° 03:10:30 10° 56° (NE) 2,012 10.2 -23.8°
Sets 03:12:56 0° 65° (ENE) 2,890 10.9 -23.8°
